THOR ABLESTAR DEB, 672

Orbit data source: Space-Track

THOR ABLESTAR DEB, 672 is space debris in LEO originally from a launch on Sat, 28 Sep 1963 UTC launched from the Air Force Western Test Range (AFWTR). Debris objects in space refer to the collection of defunct objects orbiting the Earth. Examples of debris include non-operational satellites, rocket bodies, and fragments generated from explosions, collisions, or faulty payload assembly.

Loading next visibility...
Identifier
672, 1963-038D
Orbit
LEO
Country
Flag of USUS
Related business
Manufacturer
Unknown
Mission
Spacecraft
Bus & Motor
Unknown
Mass
Unknown
Launch date (UTC)
1963-09-28 (62 years ago)
Launch vehicle
Unknown
Launch site
Air Force Western Test Range (AFWTR)
Object type
Payload
Rocket body
Debris
Shape & HBR
Unknown shape, 0.1 m
Radar Cross Section
Small (<0.1 m²)

Expand to show TLE details & history
Last TLE update: 14 hours ago

TLE from 14 hours ago
0 THOR ABLESTAR DEB
1 00672U 63038D   26071.73843789  .00001900  00000-0  21920-2 0  9996
2 00672  89.9929 336.1068 0027756   5.8029  48.4185 13.68758841 88659
Epoch: 2026-03-12T17:43Z
TLE epoch observation values (Epoch: 2026-03-12T17:43:21.033Z)
Latitude
54.55498°
Longitude
-100.10493°
Altitude
999.547 km
Speed
7.364 km/s
True Right ascension
22h 24m 28s
True Declination
54° 23' 52"
Sunlit
Object was in daylight at epoch
Visualization orbit readout
Latitude
Unknown
Longitude
Unknown
Altitude
Unknown
Speed
Unknown
Apparent Right ascension
Unknown
Apparent Declination
Unknown
Sunlit
N/A
Visualization observer readout
Local Sidereal Time
12:35:13
Azimuth
Unknown
Elevation
Unknown
Doppler factor
Unknown
Orbital elements
Apogee altitude
1,021.534 km
Perigee altitude
980.571 km
Semi-major axis
7,379.19 km
Eccentricity
0.00278
Inclination
89.9929°
RAAN
336.1068°
Arg. of periapsis
5.8029°
True anomaly
48.65696°
Mean anomaly
48.4185°
Eccentric anomaly
48.53768°
Mean motion
3.42397 °/min
Orbital period
105.14 mins
BSTAR
0.002192
Loading maneuver chart data...
Computing Atmospheric mass density...

Documentation

Showing up to 5 results
|